WetterOnline ( http://www.wetteronline.de )

Wetter aktuell Neuwied

Aktuelles Wetter: Andernach (75m)

6-stündlich | Neueste Meldungen
Ortszeit Temperatur Wetter
Mi, 12.12. 19:00 2.6° C bedeckt
Mi, 12.12. 13:00 4.6° C bewölkt
Mi, 12.12. 7:00 3.2° C bedeckt
Mi, 12.12. 1:00 1.1° C bedeckt
Di, 11.12. 19:00 2.5° C bewölkt
Di, 11.12. 13:00 4.3° C leichter Regen
Di, 11.12. 7:00 4.1° C leichter Regen
Di, 11.12. 1:00 4.8° C Sprühregen
Ortszeit Temperatur Wetter
Mi, 12.12. 22:30 3.9° C bedeckt
Mi, 12.12. 22:20 3.9° C bedeckt
Mi, 12.12. 22:10 2.8° C bedeckt
Mi, 12.12. 22:00 2.5° C bedeckt
Mi, 12.12. 21:50 2.5° C bedeckt
Mi, 12.12. 21:40 2.5° C bedeckt
Mi, 12.12. 21:30 3.1° C bedeckt
Mi, 12.12. 21:00 3.5° C bedeckt
Mi, 12.12. 20:30 3.0° C bewölkt
Mi, 12.12. 20:00 3.1° C bewölkt
Mi, 12.12. 19:30 3.6° C bedeckt
Ortszeit Relative Feuchte Sichtweite
Mi, 12.12. 19:00 89% 30 km
Mi, 12.12. 13:00 74% 29 km
Mi, 12.12. 7:00 92% 5.0 km
Mi, 12.12. 1:00 96% 3.5 km
Di, 11.12. 19:00 95% 17 km
Di, 11.12. 13:00 88% 10 km
Di, 11.12. 7:00 86% 8 km
Di, 11.12. 1:00 79% 9 km
Ortszeit Relative Feuchte Sichtweite
Mi, 12.12. 22:30 71% 50 km
Mi, 12.12. 22:20 71% -
Mi, 12.12. 22:10 80% -
Mi, 12.12. 22:00 84% 28 km
Mi, 12.12. 21:50 84% -
Mi, 12.12. 21:40 85% -
Mi, 12.12. 21:30 79% 50 km
Mi, 12.12. 21:00 74% 50 km
Mi, 12.12. 20:30 78% 50 km
Mi, 12.12. 20:00 77% 45 km
Mi, 12.12. 19:30 77% 45 km
Ortszeit Niederschlagsmenge Niederschlagsart
Mi, 12.12. 19:00 0.0 l/m2 in 12 Std. -
Mi, 12.12. 13:00 0.0 l/m2 in 6 Std. -
Mi, 12.12. 7:00 0.0 l/m2 in 12 Std. -
Mi, 12.12. 1:00 0.0 l/m2 in 6 Std. -
Di, 11.12. 19:00 3 l/m2 in 12 Std. Regen
Di, 11.12. 13:00 2 l/m2 in 6 Std. Regen
Di, 11.12. 7:00 1 l/m2 in 12 Std. Regen
Di, 11.12. 1:00 0.1 l/m2 in 6 Std. Regen
Ortszeit Niederschlagsmenge Niederschlagsart
Mi, 12.12. 22:30 0.0 l/m2 in 1 Std. -
Mi, 12.12. 22:20 keine Meldung -
Mi, 12.12. 22:10 keine Meldung -
Mi, 12.12. 22:00 0.0 l/m2 in 1 Std. -
Mi, 12.12. 21:50 keine Meldung -
Mi, 12.12. 21:40 keine Meldung -
Mi, 12.12. 21:30 0.0 l/m2 in 1 Std. -
Mi, 12.12. 21:00 0.0 l/m2 in 1 Std. -
Mi, 12.12. 20:30 0.0 l/m2 in 1 Std. -
Mi, 12.12. 20:00 0.0 l/m2 in 1 Std. -
Mi, 12.12. 19:30 0.0 l/m2 in 1 Std. -
Ortszeit Stärke Spitze Richtung
km/h Bft. km/h Grad Sektor
Mi, 12.12. 19:00 0 0 11 - -
Mi, 12.12. 13:00 2 1 17 360° N
Mi, 12.12. 7:00 4 1 11 320° NW
Mi, 12.12. 1:00 4 1 11 170° S
Di, 11.12. 19:00 4 1 25 210° SW
Di, 11.12. 13:00 11 2 29 330° NW
Di, 11.12. 7:00 7 2 32 320° NW
Di, 11.12. 1:00 11 2 32 320° NW
Ortszeit Stärke Spitze Richtung
km/h Bft. km/h Grad Sektor
Mi, 12.12. 22:30 6 1 9 40° NO
Mi, 12.12. 22:20 6 1 - 40° NO
Mi, 12.12. 22:10 2 1 - 260° W
Mi, 12.12. 22:00 4 1 7 190° S
Mi, 12.12. 21:50 4 1 - 190° S
Mi, 12.12. 21:40 4 1 - 130° SO
Mi, 12.12. 21:30 4 1 7 60° NO
Mi, 12.12. 21:00 4 1 11 70° O
Mi, 12.12. 20:30 0 0 11 - -
Mi, 12.12. 20:00 7 2 18 160° S
Mi, 12.12. 19:30 7 2 18 30° NO
Ortszeit Untergrenze Bedeckung Gattung
total tief tief mittel hoch
Mi, 12.12. 19:00 1320 m 8/8 8/8 - - -
Mi, 12.12. 13:00 600 m 7/8 7/8 - - -
Mi, 12.12. 7:00 360 m 8/8 8/8 - - -
Mi, 12.12. 1:00 450 m 8/8 8/8 - - -
Di, 11.12. 19:00 780 m 7/8 7/8 - - -
Di, 11.12. 13:00 570 m 8/8 8/8 - - -
Di, 11.12. 7:00 180 m 7/8 7/8 - - -
Di, 11.12. 1:00 900 m 6/8 6/8 - - -
Ortszeit Bedeckungsgrad in Achtel und Wolkenuntergrenze
Mi, 12.12. 22:30 8(1170m)
Mi, 12.12. 22:20 8(1170m)
Mi, 12.12. 22:10 8(1140m)
Mi, 12.12. 22:00 8(1110m)
Mi, 12.12. 21:50 8(1110m)
Mi, 12.12. 21:40 8(1140m)
Mi, 12.12. 21:30 8(1110m)
Mi, 12.12. 21:00 8(1080m)
Mi, 12.12. 20:30 6(1200m) 7(1410m)
Mi, 12.12. 20:00 7(1320m)
Mi, 12.12. 19:30 8(1290m)
Ortszeit Luftdruck NN (hPa) Tendenz (hPa in 3 Std.)
Mi, 12.12. 19:00 1025 + 0,2
Mi, 12.12. 13:00 1025 - 0,5
Mi, 12.12. 7:00 1025 - 0,1
Mi, 12.12. 1:00 1025 + 0,2
Di, 11.12. 19:00 1025 + 0,6
Di, 11.12. 13:00 1025 0,0
Di, 11.12. 7:00 1024 + 0,2
Di, 11.12. 1:00 1024 + 0,1
Ortszeit Luftdruck NN (hPa) Tendenz (hPa in 3 Std.)
Mi, 12.12. 22:30 1024 - 0,3
Mi, 12.12. 22:20 1024 keine Meldung
Mi, 12.12. 22:10 1024 keine Meldung
Mi, 12.12. 22:00 1024 - 0,4
Mi, 12.12. 21:50 1024 keine Meldung
Mi, 12.12. 21:40 1024 keine Meldung
Mi, 12.12. 21:30 1024 - 0,7
Mi, 12.12. 21:00 1024 - 0,4
Mi, 12.12. 20:30 1024 - 0,1
Mi, 12.12. 20:00 1024 0,0
Mi, 12.12. 19:30 1024 - 0,1
Ortszeit Schneehöhe (cm)
Mi, 12.12. 19:00 0
Mi, 12.12. 13:00 0
Mi, 12.12. 7:00 0
Mi, 12.12. 1:00 0
Di, 11.12. 19:00 0
Di, 11.12. 13:00 0
Di, 11.12. 7:00 0
Di, 11.12. 1:00 0
Ortszeit Schneehöhe (cm)
Mi, 12.12. 22:30 0
Mi, 12.12. 22:20 0
Mi, 12.12. 22:10 0
Mi, 12.12. 22:00 0
Mi, 12.12. 21:50 0
Mi, 12.12. 21:40 0
Mi, 12.12. 21:30 0
Mi, 12.12. 21:00 0
Mi, 12.12. 20:30 0
Mi, 12.12. 20:00 0
Mi, 12.12. 19:30 0
Link zu dieser Seite / Seite empfehlen

Das Wetter in ...